Location: Vihti�l�
(61.3833°N, 23.0667°E)
Time: 05:40:06
(UTC+00:00)

ATLAS 3B R/B - Pass Details

Date: 29 November 2020
Orbit: 1013 x 1182 km, 63.8° (Epoch: 08 January)

Event Time Altitude Azimuth Distance (km) Brightness Sun altitude
Exits shadow 05:17:52 13° 273° (W) 2,736 4.3 -11.8°
Maximum altitude 05:20:06 15° 253° (WSW) 2,611 4.3 -11.5°
Drops below altitude 10° 05:23:42 10° 222° (SW) 2,983 4.9 -11.1°
Sets 05:27:47 0° 200° (SSW) 3,972 5.8 -10.7°
